www.pogodaiklimat.ru

Погода и климат >> Архив погоды >> Россия >> Калмыкия >> Комсомольский


ПОГОДА в Комсомольском

  • Прогноз погоды в Комсомольском
  • Монитор погоды в Комсомольском
  • Климат города

АРХИВ ПОГОДЫ в Комсомольском

Время (UTC), дата Ветер
(напр.,м/с)
 
Видим.   Явления Облачность Т
(С)
Тd
(С)
f
(%)
Тe
(С)
Тes
(С)
Комфортность P
(гПа)
Po
(гПа)
Тmin
(С)
Tmax
(С)
R
(мм)
R24
(мм)
S
(см)
18 9.08 СВ 4 20 км ясно +34.0 +10.7 24 +33 +33 жарко 1011.5 1011.9
21 9.08 СВ 4
{12}
20 км ясно +28.9 +12.1 35 +30 +30 жарко 1013.2 1013.5
00 10.08 СВ 5-10
{10}
20 км 3/0
[Ac trans]
+26.0 +11.3 40 +27 +27 жарко 1014.7 1015.1
03 10.08 С 3
{10}
20 км ясно +24.0 +7.3 34 +24 +25 комфорт 1017.1 1017.5 +23.6
06 10.08 СВ 5
{10}
20 км ясно +29.1 +8.0 27 +29 +34 жарко 1018.3 1018.7
09 10.08 СВ 4
{11}
20 км ясно +32.3 +4.8 18 +30 +41 жарко 1018.0 1018.4
12 10.08 СВ 3 20 км ясно +33.4 +1.4 13 +30 +38 жарко 1017.6 1018.0
15 10.08 В 3 20 км ясно +31.4 +2.7 16 +29 +29 жарко 1017.6 1018.0 +33.4
18 10.08 ЮВ 2 20 км ясно +25.2 +5.3 28 +25 +25 комфорт 1018.8 1019.1
21 10.08 Ю 1 20 км ясно +22.2 +11.6 51 +24 +24 комфорт 1019.0 1019.4
00 11.08 СВ 1 20 км ясно +18.9 +7.6 48 +21 +21 комфорт 1018.3 1018.7
03 11.08 В 2 20 км ясно +20.0 +7.7 45 +22 +22 комфорт 1018.3 1018.7 +18.4
06 11.08 В 4 20 км ясно +29.4 +9.9 30 +29 +36 жарко 1018.1 1018.5
09 11.08 В 4
{10}
20 км ясно +32.7 +5.4 18 +30 +41 жарко 1017.0 1017.4
12 11.08 В 6-11
{11}
20 км ясно +31.7 +9.1 25 +31 +35 жарко 1016.1 1016.4
15 11.08 ЮВ 4-11
{11}
20 км ясно +28.9 +11.0 33 +29 +30 жарко 1015.6 1016.0 +33.3
18 11.08 В 3
{11}
20 км ясно +24.1 +12.7 49 +26 +26 жарко 1016.6 1016.9
21 11.08 В 3 20 км ясно +21.0 +13.1 61 +24 +24 комфорт 1015.5 1015.9
00 12.08 В 3 20 км ясно +18.8 +13.1 69 +20 +20 1014.3 1014.6
03 12.08 В 3 20 км ясно +18.6 +13.4 72 +19 +20 1014.1 1014.5 +17.4
06 12.08 В 4-10
{10}
20 км ясно +28.8 +11.9 35 +30 +36 жарко 1014.0 1014.3
09 12.08 ЮВ 4
{10}
20 км ясно +33.1 +6.7 19 +31 +42 жарко 1013.1 1013.5
12 12.08 ЮВ 4
{11}
20 км ясно +34.1 +2.3 13 +31 +37 жарко 1012.0 1012.3
15 12.08 ЮВ 4 20 км ясно +31.5 +4.9 19 +29 +30 жарко 1011.9 1012.3 +34.6
18 12.08 В 3 20 км ясно +25.0 +7.3 32 +25 +25 комфорт 1013.0 1013.3
21 12.08 В 3 20 км ясно +21.5 +10.8 51 +23 +23 комфорт 1011.8 1012.2
00 13.08 В 3 20 км ясно +18.9 +13.1 69 +20 +20 1011.2 1011.6
03 13.08 В 2 20 км ясно +18.1 +13.6 75 +19 +19 1011.3 1011.7 +17.6
06 13.08 В 4 20 км ясно +29.4 +13.0 36 +31 +37 жарко 1011.2 1011.6
09 13.08 В 2 20 км ясно +34.2 +4.3 15 +31 +48 жарко 1010.7 1011.0
12 13.08 В 4 20 км ясно +35.2 +5.9 16 +33 +39 жарко 1009.5 1009.9
15 13.08 ЮВ 4
{10}
20 км ясно +32.5 +3.5 16 +30 +30 жарко 1009.8 1010.2 +35.6
18 13.08 В 2 20 км ясно +25.6 +6.7 30 +25 +25 комфорт 1010.5 1010.9
21 13.08 штиль 0 20 км ясно +20.4 +9.7 50 +22 +22 комфорт 1010.2 1010.6
00 14.08 СВ 2 20 км ясно +18.4 +10.0 58 +19 +19 1010.3 1010.7
03 14.08 В 2 20 км ясно +21.0 +8.1 43 +23 +24 комфорт 1010.4 1010.8 +18.2
06 14.08 В 4 20 км ясно +29.4 +11.5 33 +30 +37 жарко 1011.2 1011.5
09 14.08 В 4 20 км ясно +34.3 +7.7 19 +32 +43 жарко 1010.7 1011.1
12 14.08 СВ 4 20 км ясно +35.0 +7.5 18 +33 +39 жарко 1010.4 1010.8
15 14.08 В 3 20 км ясно +33.3 +6.6 19 +31 +32 жарко 1010.3 1010.7 +35.3
18 14.08 ЮВ 2 20 км ясно +26.1 +12.1 42 +28 +28 жарко 1012.4 1012.8
21 14.08 Ю 1 20 км 3/0
[Ci fib]
+22.1 +14.4 62 +25 +25 комфорт 1012.5 1012.9
00 15.08 СВ 1 н/о н/о +18.8 +14.2 75 +21 +21 комфорт 1012.4 1012.8
03 15.08 СВ 2 20 км 4/0
[Ci fib]
+19.3 +13.2 68 +21 +22 комфорт 1013.0 1013.4 +17.5
06 15.08 В 2 20 км ясно +29.0 +9.4 29 +29 +38 жарко 1013.7 1014.1
09 15.08 В 2 20 км 6/0
[Ac trans Ci fib]
+31.2 +7.6 23 +30 +41 жарко 1013.4 1013.8
12 15.08 Ю 1 20 км 10/10 540 м
[Sc]
+31.6 +6.1 20 +30 +30 жарко 1013.1 1013.5
15 15.08 ЮВ 3 20 км 9/9 600 м
[Sc Ac trans]
+29.3 +9.2 29 +29 +29 жарко 1013.5 1013.9 +32.1
18 15.08 Ю 1 20 км 6/0
[Ac trans]
+25.5 +7.3 31 +25 +25 комфорт 1014.8 1015.2
21 15.08 В 1 20 км 10/0
[Ac trans]
+23.7 +12.7 50 +26 +26 жарко 1014.8 1015.1
00 16.08 СВ 2 20 км 4/0
[Ac trans]
+20.2 +13.8 67 +23 +23 комфорт 1014.3 1014.7
03 16.08 В 2 20 км 6/0
[Ac trans Ci fib]
+20.1 +14.4 70 +23 +23 комфорт 1015.1 1015.5 +19.5
06 16.08 В 3 20 км 8/0
[Ac trans]
+27.3 +14.0 44 +29 +34 жарко 1015.1 1015.5
09 16.08 В 3 20 км 5/5 1000 м
[Cu hum Ac trans]
+32.6 +6.7 20 +31 +37 жарко 1014.2 1014.6
12 16.08 В 5
{12}
20 км 8/8 600 м
[Sc Ac trans]
+30.4 +8.6 26 +30 +31 жарко 1014.3 1014.7
15 16.08 В 4
{11}
20 км 8/8 600 м
[Sc Ac trans]
+28.3 +13.1 39 +30 +30 жарко 1014.6 1015.0 +33.3

 

Местоположение метеостанции Комсомольский (Калмыкия, Россия): широта 45.35 долгота 46.03 высота над уровнем моря -2 м.

В архиве по умолчанию представлена погода в Комсомольском за последнюю неделю. Архивные данные за месяц целиком и за предыдущие месяцы, начиная с января 2011 года, Вы можете получить, выбрав интересующий диапазон дат из раскрывающегося списка и нажав кнопку "Ввод!".

Внимание! Время в таблицах - всемирное. Для получения местного времени необходимо прибавить поправку, которая в Комсомольском равна 3 ч.

Смотрите также архив погоды в соседних городах и на ближайших метеорологических станциях:

Погода в Артезиане (Калмыкия, Россия) (70 км)
Погода в Южно-Сухокумске (Дагестан, Россия) (83 км)
Погода в Лагани (Калмыкия, Россия) (103 км)
Погода в Лимане (Астраханская область, Россия) (105 км)
Погода в Яшкуле (Калмыкия, Россия) (106 км)
Погода в Кочубее (Дагестан, Россия) (113 км)
Погода в Утте (Калмыкия, Россия) (113 км)
Погода в Ики-Буруле (Калмыкия, Россия) (120 км)
Погода в Терекли-Мектебе (Дагестан, Россия) (136 км)
Погода в Арзгире (Ставропольский край, Россия) (143 км)

Пояснения к столбцам:

Ветер - указаны скорость ветра в м/с - средняя за 10 мин, порывы в срок и между сроками (в фигурных скобках) и направление, откуда дует ветер: С - северный, СВ - северо-восточный, В - восточный, ЮВ - юго-восточный, Ю - южный, ЮЗ - юго-западный, З - западный, СЗ - северо-западный.
Видимость - горизонтальная дальность видимости в метрах или километрах. При видимости от 1 до 10 км при отсутствии осадков обычно наблюдается дымка, при ухудшении видимости до 1 км и менее - туман. В сухую погоду видимость может ухудшаться дымом, пылью или мглою.
Явления - указаны атмосферные явления, наблюдавшиеся в срок или в последний час перед сроком; фигурными скобками обозначены явления, наблюдавшиеся между сроками (за 1-3 часа до срока); квадратными скобками обозначены град или гололедные отложения с указанием их диаметра в мм.
Облачность - указаны через наклонную черту общая и нижняя облачность в баллах и высота нижней границы облаков в метрах; квадратными скобками обозначены формы облаков: Ci - перистые, Cs - перисто-слоистые, Cc - перисто-кучевые, Ac - высококучевые, As - высокослоистые, Sc - слоисто-кучевые, Ns - слоисто-дождевые, Cu - кучевые, Cb - кучево-дождевые. Подробнее классификацию облаков см. в Атласе облаков (PDF).
T - Температура воздуха - температура, измеренная на высоте 2 м над землей.
Td - Температура точки росы - температура, при понижении до которой содержащийся в воздухе водяной пар достигнет насыщения.
f - Относительная влажность воздуха - влажноcть воздуха, измеренная на высоте 2 м над землей.
Te - Эффективная температура - температура, которую ощущает одетый по сезону человек в тени. Характеристика душности погоды. При расчете учитывается влияние влажности воздуха и скорости ветра на теплоощущения человека.
Tes - Эффективная температура на солнце - температура, которую ощущает человек, с поправкой на солнечный нагрев. Характеристика знойности погоды. Зависит от высоты солнца над горизонтом, облачности и скорости ветра. Ночью, в пасмурную погоду, а также при ветре 12 м/с и более поправка равна нулю.
P - Атмосферное давление - приведенное к уровню моря атмосферное давление.
Po - Атмосферное давление - измеренное на уровне метеостанции атмосферное давление.
Tmin - Минимальная температура - минимум температуры воздуха на высоте 2 м над землей.
Tmax - Максимальная температура - максимум температуры воздуха на высоте 2 м над землей.
R - Количество осадков - Количество выпавших осадков за период времени, мм. При наведении курсора мыши на число - период времени, за который выпало указанное количество осадков.
R24 - Количество осадков - Количество выпавших осадков за 24 часа, мм.
S - Снежный покров - Высота снежного покрова, см. При наведении курсора мыши на число - состояние снежного покрова и степень покрытия местности в баллах.